#timestamp,LO_Frequency,Hit,StdDev 
1582354815.9,286047002.7,N
1582354835.7,286047000.4,N
1582354855.5,286047000.3,N
1582354875.4,286046998.8,N
1582354895.2,286046999.4,N
1582354915.1,286047000.3,N
1582354916.0,286047000.3,N
1582354935.8,286047001.9,N
1582354955.6,286047000.4,N
1582354975.5,286046996.6,N
1582354995.3,286046999.1,N
1582355015.2,286046999.3,N
1582355035.9,286046996.7,N
1582355055.7,286046998.5,N
1582355075.6,286046999.7,N
1582355095.4,286047000.6,N
1582355115.2,286046998.8,N
1582355135.1,286046998.8,N
1582355136.0,286046998.8,N
1582355155.8,286046998.3,N
1582355175.7,286047000.6,N
1582355195.5,286046999.0,N
1582355215.3,286046999.2,N
1582355235.2,286046999.3,N
1582355255.0,286046998.9,N
1582355255.9,286046998.9,N
1582355275.8,286046996.8,N
1582355295.6,286046998.8,N
1582355315.4,286047000.8,N
1582355335.3,286046999.6,N
1582355355.1,286046997.0,N
1582355375.9,286046998.6,N
1582355395.7,286047001.0,N
1582355415.5,286047001.5,N
1582355435.4,286047002.1,N
1582355455.2,286047000.3,N
1582355475.0,286047000.9,N
1582355475.9,286047000.9,N
1582355495.8,286047001.8,N
1582355515.6,286047004.4,Y
1582355535.5,286047001.7,P
1582355555.3,286047000.4,N
1582355575.1,286047000.8,N
1582355595.9,286046998.6,N
1582355615.7,286047001.1,N
1582355635.6,286047000.4,N
1582355655.4,286047001.2,N
1582355675.2,286047000.7,N
1582355695.1,286047002.5,N
1582355696.0,286047002.5,N
1582355715.8,286047000.8,N
1582355735.7,286047000.6,N
1582355755.5,286047000.5,N
1582355775.3,286047000.0,N
1582355795.2,286047000.9,N
1582355815.0,286047000.5,N
1582355815.9,286047000.5,N
1582355835.8,286047000.2,N
1582355855.6,286047002.4,N
1582355875.4,286047003.2,Y
1582355895.3,286047004.4,P
1582355915.1,286047002.1,N
1582355935.8,286047004.0,N
1582355955.7,286047002.4,N
1582355975.5,286047001.3,N
1582355995.4,286047003.0,N
1582356015.2,286047003.7,N
1582356035.0,286047003.4,N
1582356035.9,286047003.4,N
1582356055.8,286047002.7,N
1582356075.6,286047000.8,N
1582356095.5,286046998.9,N
1582356115.3,286047000.8,N
1582356135.1,286047002.4,N
1582356155.9,286047005.6,Y
1582356175.7,286046999.8,P
1582356195.5,286047000.5,N
1582356215.4,286046998.9,N
1582356235.2,286046998.3,N
1582356255.1,286046999.1,N
1582356256.0,286046999.1,N
1582356275.8,286046998.2,N
1582356295.7,286046998.9,N
1582356315.5,286047001.2,N
1582356335.3,286047000.7,N
1582356355.2,286046998.9,N
1582356375.0,286046998.7,N
1582356375.9,286046998.7,N
1582356395.8,286046999.0,N
1582356415.6,286046996.5,Y
1582356435.4,286046998.9,P
1582356455.3,286046998.4,P
1582356475.1,286046997.0,P
1582356495.9,286046998.1,N
1582356515.7,286046998.2,N
1582356535.5,286047000.0,N
1582356555.4,286046999.4,N
1582356575.2,286046998.3,N
1582356595.1,286046998.9,N
1582356596.0,286046998.9,N
1582356615.8,286046999.0,N
1582356635.6,286046999.4,N
1582356655.5,286046999.1,N
1582356675.3,286046999.3,N
1582356695.1,286046999.0,N
1582356715.9,286046997.4,Y
1582356735.7,286046998.0,P
1582356755.6,286046995.3,P
1582356775.4,286046999.1,N
1582356795.3,286046999.3,N
1582356815.1,286046999.6,N
1582356816.0,286046999.6,N
1582356835.8,286046998.1,N
1582356855.7,286047001.1,N
1582356875.5,286046998.5,N
1582356895.3,286046998.7,N
1582356915.2,286047000.0,N
1582356935.0,286046998.2,N
1582356935.9,286046998.2,N
1582356955.8,286047000.3,N
1582356975.6,286046999.0,N
1582356995.4,286046998.9,N
1582357015.3,286046999.6,N
1582357035.1,286046998.7,N
1582357055.9,286046998.1,N
1582357075.7,286047001.0,N
1582357095.5,286046996.9,N
1582357115.4,286046999.1,N
1582357135.2,286047001.2,N
1582357155.0,286046998.3,N
1582357155.9,286046998.3,N
1582357175.8,286046996.6,N
1582357195.6,286046998.1,N
1582357215.5,286046999.7,N
1582357235.3,286047004.0,Y
1582357255.1,286047003.6,P
1582357275.9,286047002.7,N
1582357295.7,286047001.3,N
1582357315.6,286047002.0,N
1582357335.4,286046999.8,N
1582357355.2,286047000.4,N
1582357375.1,286046999.8,N
1582357376.0,286046999.8,N
1582357395.8,286047001.1,N
1582357415.7,286047000.7,N
1582357435.5,286046998.7,N
1582357455.3,286046999.3,N
1582357475.2,286046999.5,N
1582357495.0,286046998.7,N
1582357495.9,286046998.7,N
1582357515.7,286047000.4,N
1582357535.6,286047002.7,N
1582357555.4,286046999.8,N
1582357575.3,286047002.4,N
1582357595.1,286047001.6,N
1582357596.0,286047001.6,N
1582357615.8,286046999.8,N
1582357635.7,286047001.0,N
1582357655.5,286047000.4,N
1582357675.4,286047000.2,N
1582357695.2,286047002.4,N
1582357715.0,286046998.4,N
1582357746.0,286046998.8,E
1582357755.9,286047000.9,N
1582357775.7,286046999.9,P
1582357795.6,286047000.1,N
1582357815.4,286047004.0,Y
1582357835.2,286047004.0,P
1582357855.1,286047002.3,N
1582357856.0,286047002.3,N
1582357875.8,286047001.9,N
1582357895.7,286047003.6,Y
1582357915.5,286047002.4,P
1582357935.3,286047002.5,P
1582357955.2,286047001.9,P
1582357975.0,286047004.3,Y
1582357975.9,286047004.3,P
1582357995.8,286046998.8,N
1582358015.6,286046998.2,N
1582358035.4,286046997.5,N
1582358055.3,286046996.8,N
1582358075.1,286046996.9,N
1582358095.9,286046997.0,N
1582358115.7,286046996.9,N
1582358135.5,286046999.0,N
1582358155.4,286046998.2,N
1582358175.2,286046999.4,N
1582358195.0,286047000.9,N
1582358195.9,286047000.9,N
1582358215.8,286047001.1,N
1582358235.6,286046997.0,N
1582358255.5,286046996.9,N
1582358275.3,286046998.0,N
1582358295.1,286046997.4,N
1582358315.9,286046996.2,N
1582358335.7,286046997.9,N
1582358355.6,286046995.1,N
1582358375.4,286046997.2,N
1582358395.2,286046997.6,N
